Time,TemperatureF,DewpointF,PressureIn,WindDirection,WindDirectionDegrees,WindSpeedMPH,WindSpeedGustMPH,Humidity,HourlyPrecipIn,Conditions,Clouds,dailyrainin,SoftwareType,DateUTC
2013-03-28 00:02:00,43.0,39.0,29.92,NNE,30,1.0,-999.0,87,-99.99,,,-99.99,,2013-03-28 07:02:00,
2013-03-28 00:12:00,43.0,39.0,29.92,NNE,30,1.0,-999.0,87,-99.99,,,-99.99,,2013-03-28 07:12:00,
2013-03-28 00:22:00,43.0,39.0,29.92,NNE,30,0.0,-999.0,87,-99.99,,,-99.99,,2013-03-28 07:22:00,
2013-03-28 00:32:00,43.0,40.0,29.93,NNE,30,0.0,-999.0,88,-99.99,,,-99.99,,2013-03-28 07:32:00,
2013-03-28 00:42:00,43.0,40.0,29.93,NNE,30,0.0,-999.0,88,-99.99,,,-99.99,,2013-03-28 07:42:00,
2013-03-28 00:51:00,43.0,40.0,29.92,NNE,30,0.0,-999.0,89,-99.99,,,-99.99,,2013-03-28 07:51:00,
2013-03-28 01:02:00,42.0,39.0,29.92,NNE,30,0.0,-999.0,89,-99.99,,,-99.99,,2013-03-28 08:02:00,
2013-03-28 01:11:00,42.0,39.0,29.92,NNE,30,0.0,-999.0,89,-99.99,,,-99.99,,2013-03-28 08:11:00,
2013-03-28 01:21:00,42.0,39.0,29.92,NNE,30,0.0,-999.0,90,-99.99,,,-99.99,,2013-03-28 08:21:00,
2013-03-28 01:32:00,42.0,39.0,29.92,NNE,30,0.0,-999.0,90,-99.99,,,-99.99,,2013-03-28 08:32:00,
2013-03-28 01:42:00,42.0,39.0,29.92,NNE,30,0.0,-999.0,90,-99.99,,,-99.99,,2013-03-28 08:42:00,
2013-03-28 01:52:00,42.0,39.0,29.94,NNE,30,0.0,-999.0,90,-99.99,,,-99.99,,2013-03-28 08:52:00,
2013-03-28 02:01:00,42.0,40.0,29.95,NNE,30,0.0,-999.0,91,-99.99,,,-99.99,,2013-03-28 09:01:00,
2013-03-28 02:11:00,42.0,40.0,29.95,NNE,30,0.0,-999.0,91,-99.99,,,-99.99,,2013-03-28 09:11:00,
2013-03-28 02:22:00,42.0,40.0,29.94,NE,39,0.0,-999.0,91,-99.99,,,-99.99,,2013-03-28 09:22:00,
2013-03-28 02:32:00,42.0,39.0,29.94,WNW,296,0.0,-999.0,90,-99.99,,,-99.99,,2013-03-28 09:32:00,
2013-03-28 02:42:00,41.0,39.0,29.94,WNW,296,0.0,-999.0,91,-99.99,,,-99.99,,2013-03-28 09:42:00,
2013-03-28 02:52:00,41.0,39.0,29.94,WNW,296,0.0,-999.0,91,-99.99,,,-99.99,,2013-03-28 09:52:00,
2013-03-28 03:02:00,41.0,39.0,29.94,WNW,296,0.0,-999.0,91,-99.99,,,-99.99,,2013-03-28 10:02:00,
2013-03-28 03:12:00,41.0,39.0,29.94,WNW,296,0.0,-999.0,91,-99.99,,,-99.99,,2013-03-28 10:12:00,
2013-03-28 03:22:00,40.0,37.0,29.94,WNW,296,0.0,-999.0,90,-99.99,,,-99.99,,2013-03-28 10:22:00,
2013-03-28 03:32:00,40.0,37.0,29.94,WNW,296,0.0,-999.0,90,-99.99,,,-99.99,,2013-03-28 10:32:00,
2013-03-28 03:42:00,40.0,37.0,29.94,WNW,296,0.0,-999.0,90,-99.99,,,-99.99,,2013-03-28 10:42:00,
2013-03-28 03:52:00,39.0,36.0,29.95,WNW,296,0.0,-999.0,88,-99.99,,,-99.99,,2013-03-28 10:52:00,
2013-03-28 04:02:00,38.0,35.0,29.92,WNW,296,0.0,-999.0,89,-99.99,,,-99.99,,2013-03-28 11:02:00,
2013-03-28 04:12:00,38.0,35.0,29.92,WNW,296,0.0,-999.0,89,-99.99,,,-99.99,,2013-03-28 11:12:00,
2013-03-28 04:22:00,37.0,34.0,29.92,WNW,296,0.0,-999.0,90,-99.99,,,-99.99,,2013-03-28 11:22:00,
2013-03-28 04:32:00,37.0,34.0,29.93,WNW,296,0.0,-999.0,90,-99.99,,,-99.99,,2013-03-28 11:32:00,
2013-03-28 04:42:00,37.0,34.0,29.93,WNW,296,0.0,-999.0,90,-99.99,,,-99.99,,2013-03-28 11:42:00,
2013-03-28 04:52:00,36.0,33.0,29.94,WNW,296,0.0,-999.0,90,-99.99,,,-99.99,,2013-03-28 11:52:00,
2013-03-28 05:02:00,36.0,33.0,29.94,WNW,296,0.0,-999.0,90,-99.99,,,-99.99,,2013-03-28 12:02:00,
2013-03-28 05:12:00,36.0,33.0,29.94,WNW,296,0.0,-999.0,90,-99.99,,,-99.99,,2013-03-28 12:12:00,
2013-03-28 05:22:00,36.0,33.0,29.94,WNW,296,0.0,-999.0,90,-99.99,,,-99.99,,2013-03-28 12:22:00,
2013-03-28 05:32:00,36.0,33.0,29.95,WNW,296,0.0,-999.0,90,-99.99,,,-99.99,,2013-03-28 12:32:00,
2013-03-28 05:42:00,36.0,33.0,29.95,WNW,296,0.0,-999.0,90,-99.99,,,-99.99,,2013-03-28 12:42:00,
2013-03-28 05:51:00,35.0,32.0,29.95,WNW,296,0.0,-999.0,90,-99.99,,,-99.99,,2013-03-28 12:51:00,
2013-03-28 06:02:00,35.0,32.0,29.95,WNW,296,0.0,-999.0,90,-99.99,,,-99.99,,2013-03-28 13:02:00,
2013-03-28 06:11:00,35.0,32.0,29.95,WNW,296,0.0,-999.0,90,-99.99,,,-99.99,,2013-03-28 13:11:00,
2013-03-28 06:21:00,34.0,31.0,29.95,WNW,296,0.0,-999.0,90,-99.99,,,-99.99,,2013-03-28 13:21:00,
2013-03-28 06:32:00,34.0,32.0,29.96,WNW,296,0.0,-999.0,91,-99.99,,,-99.99,,2013-03-28 13:32:00,
2013-03-28 06:41:00,34.0,32.0,29.96,WNW,296,0.0,-999.0,91,-99.99,,,-99.99,,2013-03-28 13:41:00,
2013-03-28 06:52:00,35.0,33.0,29.97,WNW,296,0.0,-999.0,91,-99.99,,,-99.99,,2013-03-28 13:52:00,
2013-03-28 07:02:00,35.0,32.0,29.97,WNW,296,0.0,-999.0,90,-99.99,,,-99.99,,2013-03-28 14:02:00,
2013-03-28 07:12:00,35.0,32.0,29.97,WNW,296,0.0,-999.0,90,-99.99,,,-99.99,,2013-03-28 14:12:00,
2013-03-28 07:22:00,35.0,32.0,29.97,WNW,296,0.0,-999.0,90,-99.99,,,-99.99,,2013-03-28 14:22:00,
2013-03-28 07:32:00,35.0,32.0,29.97,WNW,296,0.0,-999.0,90,-99.99,,,-99.99,,2013-03-28 14:32:00,
2013-03-28 07:42:00,35.0,32.0,29.97,WNW,296,0.0,-999.0,90,-99.99,,,-99.99,,2013-03-28 14:42:00,
2013-03-28 07:51:00,35.0,32.0,29.95,WNW,296,0.0,-999.0,90,-99.99,,,-99.99,,2013-03-28 14:51:00,
2013-03-28 08:01:00,36.0,34.0,29.96,WNW,296,0.0,-999.0,91,-99.99,,,-99.99,,2013-03-28 15:01:00,
2013-03-28 08:11:00,36.0,34.0,29.96,WNW,296,0.0,-999.0,91,-99.99,,,-99.99,,2013-03-28 15:11:00,
2013-03-28 08:21:00,36.0,34.0,29.98,WNW,296,0.0,-999.0,92,-99.99,,,-99.99,,2013-03-28 15:21:00,
2013-03-28 08:32:00,37.0,35.0,29.98,WNW,296,0.0,-999.0,93,-99.99,,,-99.99,,2013-03-28 15:32:00,
2013-03-28 08:43:00,37.0,35.0,29.98,WNW,296,0.0,-999.0,93,-99.99,,,-99.99,,2013-03-28 15:43:00,
2013-03-28 08:52:00,39.0,37.0,29.97,WNW,296,0.0,-999.0,93,-99.99,,,-99.99,,2013-03-28 15:52:00,
2013-03-28 09:02:00,40.0,38.0,29.97,WNW,296,0.0,-999.0,93,-99.99,,,-99.99,,2013-03-28 16:02:00,
2013-03-28 09:12:00,40.0,38.0,29.97,WNW,296,0.0,-999.0,93,-99.99,,,-99.99,,2013-03-28 16:12:00,
2013-03-28 09:22:00,41.0,39.0,29.96,WNW,296,0.0,-999.0,93,-99.99,,,-99.99,,2013-03-28 16:22:00,
2013-03-28 09:32:00,42.0,40.0,29.96,WNW,296,1.0,-999.0,91,-99.99,,,-99.99,,2013-03-28 16:32:00,
2013-03-28 09:42:00,42.0,40.0,29.96,WNW,296,1.0,-999.0,91,-99.99,,,-99.99,,2013-03-28 16:42:00,
2013-03-28 09:52:00,42.0,39.0,29.97,WNW,296,0.0,-999.0,90,-99.99,,,-99.99,,2013-03-28 16:52:00,
2013-03-28 10:02:00,43.0,41.0,29.96,WNW,296,1.0,-999.0,91,-99.99,,,-99.99,,2013-03-28 17:02:00,
2013-03-28 10:12:00,43.0,41.0,29.96,WNW,296,1.0,-999.0,91,-99.99,,,-99.99,,2013-03-28 17:12:00,
2013-03-28 10:22:00,44.0,41.0,29.99,WNW,296,0.0,-999.0,88,-99.99,,,-99.99,,2013-03-28 17:22:00,
2013-03-28 10:32:00,44.0,40.0,30.00,SW,231,1.0,-999.0,87,-99.99,,,-99.99,,2013-03-28 17:32:00,
2013-03-28 10:42:00,44.0,40.0,30.00,SW,231,1.0,-999.0,87,-99.99,,,-99.99,,2013-03-28 17:42:00,
2013-03-28 10:52:00,45.0,41.0,30.00,SW,218,0.0,-999.0,87,-99.99,,,-99.99,,2013-03-28 17:52:00,
2013-03-28 11:02:00,46.0,41.0,30.00,SW,217,0.0,-999.0,83,-99.99,,,-99.99,,2013-03-28 18:02:00,
2013-03-28 11:12:00,46.0,41.0,30.00,SW,217,0.0,-999.0,83,-99.99,,,-99.99,,2013-03-28 18:12:00,
2013-03-28 11:22:00,46.0,41.0,30.00,SW,217,0.0,-999.0,84,-99.99,,,-99.99,,2013-03-28 18:22:00,
2013-03-28 11:32:00,47.0,42.0,30.01,NW,314,0.0,-999.0,82,-99.99,,,-99.99,,2013-03-28 18:32:00,
2013-03-28 11:42:00,47.0,42.0,30.01,NW,314,0.0,-999.0,82,-99.99,,,-99.99,,2013-03-28 18:42:00,
2013-03-28 11:52:00,47.0,41.0,30.01,NW,314,1.0,-999.0,80,-99.99,,,-99.99,,2013-03-28 18:52:00,
2013-03-28 12:02:00,48.0,41.0,30.01,NW,314,0.0,-999.0,78,-99.99,,,-99.99,,2013-03-28 19:02:00,
2013-03-28 12:12:00,48.0,41.0,30.01,NW,314,0.0,-999.0,78,-99.99,,,-99.99,,2013-03-28 19:12:00,
2013-03-28 12:22:00,48.0,42.0,30.01,NW,314,0.0,-999.0,81,-99.99,,,-99.99,,2013-03-28 19:22:00,
2013-03-28 12:32:00,49.0,42.0,30.00,NNW,333,1.0,-999.0,78,-99.99,,,-99.99,,2013-03-28 19:32:00,
2013-03-28 12:42:00,49.0,42.0,30.00,NNW,333,1.0,-999.0,78,-99.99,,,-99.99,,2013-03-28 19:42:00,
2013-03-28 12:52:00,51.0,42.0,30.00,NNE,17,2.0,-999.0,72,-99.99,,,-99.99,,2013-03-28 19:52:00,
2013-03-28 13:02:00,50.0,42.0,30.00,NW,307,0.0,-999.0,73,-99.99,,,-99.99,,2013-03-28 20:02:00,
2013-03-28 13:12:00,50.0,42.0,30.00,NW,307,0.0,-999.0,73,-99.99,,,-99.99,,2013-03-28 20:12:00,
2013-03-28 13:21:00,51.0,42.0,30.00,NW,307,0.0,-999.0,70,-99.99,,,-99.99,,2013-03-28 20:21:00,
2013-03-28 13:32:00,52.0,43.0,30.00,NW,306,0.0,-999.0,71,-99.99,,,-99.99,,2013-03-28 20:32:00,
2013-03-28 13:42:00,52.0,43.0,30.00,NW,306,0.0,-999.0,71,-99.99,,,-99.99,,2013-03-28 20:42:00,
2013-03-28 13:52:00,54.0,44.0,29.99,NW,307,0.0,-999.0,69,-99.99,,,-99.99,,2013-03-28 20:52:00,
2013-03-28 14:02:00,55.0,42.0,29.98,NNW,348,2.0,-999.0,61,-99.99,,,-99.99,,2013-03-28 21:02:00,
2013-03-28 14:12:00,55.0,42.0,29.98,NNW,348,2.0,-999.0,61,-99.99,,,-99.99,,2013-03-28 21:12:00,
2013-03-28 14:22:00,57.0,44.0,30.01,SE,126,0.0,-999.0,61,-99.99,,,-99.99,,2013-03-28 21:22:00,
2013-03-28 14:32:00,57.0,41.0,30.01,NW,309,1.0,-999.0,56,-99.99,,,-99.99,,2013-03-28 21:32:00,
2013-03-28 14:42:00,57.0,41.0,30.01,NW,309,1.0,-999.0,56,-99.99,,,-99.99,,2013-03-28 21:42:00,
2013-03-28 14:52:00,57.0,41.0,29.98,West,277,2.0,-999.0,55,-99.99,,,-99.99,,2013-03-28 21:52:00,
2013-03-28 15:02:00,55.0,42.0,29.98,West,278,1.0,-999.0,61,-99.99,,,-99.99,,2013-03-28 22:02:00,
2013-03-28 15:12:00,55.0,42.0,29.98,West,278,1.0,-999.0,61,-99.99,,,-99.99,,2013-03-28 22:12:00,
2013-03-28 15:22:00,54.0,40.0,29.99,NNE,19,1.0,-999.0,59,-99.99,,,-99.99,,2013-03-28 22:22:00,
2013-03-28 15:32:00,54.0,43.0,29.98,WNW,293,0.0,-999.0,66,-99.99,,,-99.99,,2013-03-28 22:32:00,
2013-03-28 15:42:00,54.0,43.0,29.98,WNW,293,0.0,-999.0,66,-99.99,,,-99.99,,2013-03-28 22:42:00,
2013-03-28 15:52:00,56.0,45.0,29.98,West,269,3.0,-999.0,66,-99.99,,,-99.99,,2013-03-28 22:52:00,
2013-03-28 16:02:00,59.0,41.0,29.97,NNW,346,2.0,-999.0,52,-99.99,,,-99.99,,2013-03-28 23:02:00,
2013-03-28 16:12:00,59.0,41.0,29.97,NNW,346,2.0,-999.0,52,-99.99,,,-99.99,,2013-03-28 23:12:00,
2013-03-28 16:21:00,61.0,42.0,29.97,NE,51,2.0,-999.0,49,-99.99,,,-99.99,,2013-03-28 23:21:00,
2013-03-28 16:32:00,64.0,42.0,29.98,SE,141,1.0,-999.0,44,-99.99,,,-99.99,,2013-03-28 23:32:00,
2013-03-28 16:52:00,64.0,43.0,29.98,ENE,73,1.0,-999.0,46,-99.99,,,-99.99,,2013-03-28 23:52:00,
2013-03-28 17:02:00,65.0,41.0,29.98,NNW,348,1.0,-999.0,41,-99.99,,,-99.99,,2013-03-29 00:02:00,
2013-03-28 17:11:00,65.0,41.0,29.98,NNW,348,1.0,-999.0,41,-99.99,,,-99.99,,2013-03-29 00:11:00,
2013-03-28 17:22:00,63.0,40.0,29.98,NNE,25,3.0,-999.0,42,-99.99,,,-99.99,,2013-03-29 00:22:00,
2013-03-28 17:32:00,61.0,38.0,29.98,NE,41,1.0,-999.0,42,-99.99,,,-99.99,,2013-03-29 00:32:00,
2013-03-28 17:42:00,61.0,38.0,29.98,NE,41,1.0,-999.0,42,-99.99,,,-99.99,,2013-03-29 00:42:00,
2013-03-28 17:52:00,60.0,39.0,29.96,NE,37,0.0,-999.0,46,-99.99,,,-99.99,,2013-03-29 00:52:00,
2013-03-28 18:02:00,59.0,38.0,29.96,NE,37,0.0,-999.0,46,-99.99,,,-99.99,,2013-03-29 01:02:00,
2013-03-28 18:12:00,59.0,38.0,29.96,NE,37,0.0,-999.0,46,-99.99,,,-99.99,,2013-03-29 01:12:00,
2013-03-28 18:22:00,58.0,39.0,29.96,NE,37,0.0,-999.0,49,-99.99,,,-99.99,,2013-03-29 01:22:00,
2013-03-28 18:32:00,59.0,42.0,29.97,NE,37,0.0,-999.0,53,-99.99,,,-99.99,,2013-03-29 01:32:00,
2013-03-28 18:42:00,59.0,42.0,29.97,NE,37,0.0,-999.0,53,-99.99,,,-99.99,,2013-03-29 01:42:00,
2013-03-28 18:52:00,58.0,42.0,29.97,NE,37,0.0,-999.0,55,-99.99,,,-99.99,,2013-03-29 01:52:00,
2013-03-28 19:02:00,57.0,43.0,29.97,NE,37,0.0,-999.0,59,-99.99,,,-99.99,,2013-03-29 02:02:00,
2013-03-28 19:11:00,57.0,43.0,29.97,NE,37,0.0,-999.0,59,-99.99,,,-99.99,,2013-03-29 02:11:00,
2013-03-28 19:21:00,54.0,43.0,29.98,NE,37,0.0,-999.0,67,-99.99,,,-99.99,,2013-03-29 02:21:00,
2013-03-28 19:32:00,53.0,43.0,29.98,NE,37,0.0,-999.0,70,-99.99,,,-99.99,,2013-03-29 02:32:00,
2013-03-28 19:42:00,53.0,43.0,29.98,NE,37,0.0,-999.0,70,-99.99,,,-99.99,,2013-03-29 02:42:00,
2013-03-28 19:52:00,51.0,43.0,29.98,NE,37,0.0,-999.0,74,-99.99,,,-99.99,,2013-03-29 02:52:00,
2013-03-28 20:02:00,48.0,42.0,29.99,NE,37,0.0,-999.0,79,-99.99,,,-99.99,,2013-03-29 03:02:00,
2013-03-28 20:12:00,48.0,42.0,29.99,NE,37,0.0,-999.0,79,-99.99,,,-99.99,,2013-03-29 03:12:00,
2013-03-28 20:21:00,47.0,41.0,30.00,NE,37,0.0,-999.0,81,-99.99,,,-99.99,,2013-03-29 03:21:00,
2013-03-28 20:32:00,46.0,41.0,29.98,NE,37,0.0,-999.0,81,-99.99,,,-99.99,,2013-03-29 03:32:00,
2013-03-28 20:42:00,46.0,41.0,29.98,NE,37,0.0,-999.0,81,-99.99,,,-99.99,,2013-03-29 03:42:00,
2013-03-28 20:52:00,44.0,39.0,30.01,NE,37,0.0,-999.0,82,-99.99,,,-99.99,,2013-03-29 03:52:00,
2013-03-28 21:02:00,43.0,38.0,29.99,NE,36,0.0,-999.0,84,-99.99,,,-99.99,,2013-03-29 04:02:00,
2013-03-28 21:12:00,43.0,38.0,29.99,NE,36,0.0,-999.0,84,-99.99,,,-99.99,,2013-03-29 04:12:00,
2013-03-28 21:22:00,43.0,38.0,30.00,NE,36,0.0,-999.0,84,-99.99,,,-99.99,,2013-03-29 04:22:00,
2013-03-28 21:32:00,42.0,38.0,30.00,NE,36,0.0,-999.0,84,-99.99,,,-99.99,,2013-03-29 04:32:00,
2013-03-28 21:42:00,42.0,38.0,30.00,NE,36,0.0,-999.0,84,-99.99,,,-99.99,,2013-03-29 04:42:00,
2013-03-28 21:52:00,41.0,37.0,30.01,NE,36,0.0,-999.0,84,-99.99,,,-99.99,,2013-03-29 04:52:00,
2013-03-28 22:02:00,40.0,36.0,30.01,NE,36,0.0,-999.0,85,-99.99,,,-99.99,,2013-03-29 05:02:00,
2013-03-28 22:12:00,40.0,36.0,30.01,NE,36,0.0,-999.0,85,-99.99,,,-99.99,,2013-03-29 05:12:00,
2013-03-28 22:22:00,40.0,36.0,30.01,NE,36,0.0,-999.0,85,-99.99,,,-99.99,,2013-03-29 05:22:00,
2013-03-28 22:32:00,39.0,35.0,30.02,NE,36,0.0,-999.0,86,-99.99,,,-99.99,,2013-03-29 05:32:00,
2013-03-28 22:43:00,39.0,35.0,30.02,NE,36,0.0,-999.0,86,-99.99,,,-99.99,,2013-03-29 05:43:00,
2013-03-28 22:52:00,39.0,35.0,30.05,NE,36,0.0,-999.0,87,-99.99,,,-99.99,,2013-03-29 05:52:00,
2013-03-28 23:02:00,38.0,34.0,30.05,NE,36,0.0,-999.0,87,-99.99,,,-99.99,,2013-03-29 06:02:00,
2013-03-28 23:12:00,38.0,34.0,30.05,NE,36,0.0,-999.0,87,-99.99,,,-99.99,,2013-03-29 06:12:00,
2013-03-28 23:22:00,38.0,34.0,30.03,WNW,283,0.0,-999.0,87,-99.99,,,-99.99,,2013-03-29 06:22:00,
2013-03-28 23:32:00,38.0,35.0,30.03,SW,227,0.0,-999.0,88,-99.99,,,-99.99,,2013-03-29 06:32:00,
2013-03-28 23:42:00,38.0,35.0,30.03,SW,227,0.0,-999.0,88,-99.99,,,-99.99,,2013-03-29 06:42:00,
2013-03-28 23:52:00,37.0,34.0,30.06,SW,227,0.0,-999.0,88,-99.99,,,-99.99,,2013-03-29 06:52:00,